Погода в Коломне

Россия / Тверская область     57°41′49″N   34°16′02″E
темп.,
°C
ветер,
м/с
пор.,
м/с
влажн.,
%
обл.,
%
осадки,
мм/ч
давл.,
гПа
погр.,
м
5 марта, пт
пт500:00−6сз389040 0.0 1004587
03:00−7сз389163 0.0 1005396
06:00−8зсз399389 0.1 1006419
09:00−7зсз488778 0.1 1007613
12:00−4сз4571100 0.1 10091039
15:00−4сз3565100 0.4 10101218
18:00−6сз2680100 0.3 1012229
21:00−8зсз289280 0.3 1014243
6 марта, сб
сб600:00−9зсз269417 0.0 1015166
03:00−9зсз259633 0.0 1017183
06:00−9сз249699 0.1 1017213
09:00−9сз249298 0.1 1018244
12:00−6зсз357185 0.0 1017968
15:00−4з366492 0.1 10151262
18:00−6юз387698 0.1 1012366
21:00−5юз5127599 0.1 1009950
7 марта, вс
вс700:00−4юз71490100 0.4 10031225
03:00−3юз71592100 1.6 9981261
06:00−3юз71591100 1.2 9931127
09:00−7ссз71390100 3.6 991883
12:00−4зсз485868 0.3 9921558
15:00−5з5105781 1.0 9941877
18:00−6зюз3876100 0.3 992975
21:00−7ю2395100 1.4 992128
8 марта, пн
пн800:00−8сз5119398 0.2 994620
03:00−11ссз5118598 1.5 997617
06:00−13сз4128770 0.0 999487
09:00−11сз5118784 0.1 1002715
12:00−9ссз6980100 0.1 1004935
15:00−8ссз5878100 0.3 10071053
18:00−11ссз5886100 0.1 1009793
21:00−13ссз4891100 0.2 1012625
9 марта, вт
вт900:00−16ссз3795100 0.1 1015381
03:00−18ссз369694 0.1 1017254
06:00−20ссз269762 0.0 1019237
09:00−19ссз359155 0.0 1020278
12:00−14сз247220 0.0 1021491
15:00−11сз246830 0.0 1021755
18:00−12зсз1284100 0.0 102098
21:00−12юв2295100 0.3 1020124